Location: The Saddle
(36.8333°N, 80.3417°W)
Time: 07:03:37
(UTC-05:00)

Vanguard 2 Rocket - Pass Details

Date: 12 December 2023
Orbit: 555 x 3309 km, 32.9° (Epoch: 02 March)

Event Time Altitude Azimuth Distance (km) Brightness Sun altitude
Rises 11:45:24 0° 226° (SW) 4,637 11.0 29.7°
Reaches altitude 10° 11:48:06 10° 221° (SW) 3,961 10.9 29.7°
Maximum altitude 11:58:55 51° 149° (SSE) 2,877 10.7 30.0°
Drops below altitude 10° 12:16:06 10° 81° (E) 6,099 11.1 30.1°
Sets 12:21:25 0° 78° (ENE) 7,259 11.4 30.1°
